This is the latest recevied weather packets stored in our database for station/object OH2TI. If no packets are shown the sender has not sent any weather packets the latest 10 day(s).
| Time | Temp. | Humidity | Pressure | Rain* | Wind** | Luminosity | Snow |
|---|---|---|---|---|---|---|---|
| 1777125210 | 5.56° C | 84% | 986.4 hPa | - | - | - | - |
| 1777124505 | 5° C | 82% | 986.4 hPa | - | - | - | - |
| 1777123775 | 5.56° C | 77% | 986.7 hPa | - | - | - | - |
| 1777123432 | 6.67° C | 73% | 986.8 hPa | - | - | - | - |
| 1777123040 | 7.78° C | 73% | 986.7 hPa | - | - | - | - |
| 1777122320 | 7.78° C | 73% | 986.7 hPa | - | - | - | - |
| 1777121823 | 7.78° C | 73% | 986.8 hPa | - | - | - | - |
| 1777121473 | 7.78° C | 74% | 986.8 hPa | - | - | - | - |
| 1777120777 | 7.22° C | 76% | 986.9 hPa | - | - | - | - |
| 1777120260 | 6.67° C | 75% | 987.1 hPa | - | - | - | - |
| 1777119913 | 6.67° C | 76% | 987.2 hPa | - | - | - | - |
| 1777119375 | 6.67° C | 75% | 987.4 hPa | - | - | - | - |
| 1777119065 | 6.67° C | 74% | 987.5 hPa | - | - | - | - |
| 1777118350 | 6.67° C | 76% | 987.7 hPa | - | - | - | - |
| 1777117490 | 6.67° C | 71% | 987.7 hPa | - | - | - | - |
| 1777116937 | 7.22° C | 69% | 987.6 hPa | - | - | - | - |
| 1777116253 | 7.22° C | 68% | 987.6 hPa | - | - | - | - |
| 1777115925 | 7.22° C | 67% | 987.7 hPa | - | - | - | - |
| 1777115240 | 7.78° C | 67% | 987.8 hPa | - | - | - | - |
| 1777114360 | 8.33° C | 67% | 987.8 hPa | - | - | - | - |
| 1777113493 | 8.33° C | 69% | 987.9 hPa | - | - | - | - |
| 1777112752 | 7.78° C | 71% | 988 hPa | - | - | - | - |
| 1777112163 | 7.78° C | 73% | 988 hPa | - | - | - | - |
| 1777111433 | 7.78° C | 74% | 988.2 hPa | - | - | - | - |
| 1777110963 | 7.22° C | 78% | 988.3 hPa | - | - | - | - |
* Rain since midnight (hover to see other rain measurements)
** Current wind speed in m/s (hover to see current wind gust speed)